World > North America > United States > Minnesota

Hourly Lawrence, MN Regional Weather

Feedback E-mail the Weather

Quick WX

Lawrence, MN Weather Maps

°F °C°F °C
Lawrence Weather Map
UTC Time: 7/7/2022, 03:44
Your Time:

Lawrence, MN Regional Weather

Expires:202207070400;;874934
ASUS43 KMPX 070310
RWRMN 
WEATHER ROUNDUP FOR MINNESOTA
NATIONAL WEATHER SERVICE TWIN CITIES/CHANHASSEN MN
1000 PM CDT WED JUL 06 2022


NOTE: "FAIR" INDICATES FEW OR NO CLOUDS BELOW 12,000 FEET WITH NO
SIGNIFICANT WEATHER AND/OR OBSTRUCTIONS TO VISIBILITY. N/A MEANS
CURRENT SKY AND/OR WEATHER CONDITIONS ARE NOT AVAILABLE.


MNZ006-009>011-018-025>026-070400-
   North Central Minnesota   
  
CITY           SKY/WX    TMP DP  RH WIND       PRES   REMARKS
BAUDETTE       MOCLDY    72  61  68 CALM      29.96S                  
INTL FALLS     PTCLDY    68  59  73 VRB3      29.98R                  
WASKISH        PTCLDY    72  63  73 CALM      29.98R                  
BIG FORK       CLEAR     70  61  73 S3        30.06R                  
LONGVILLE      CLEAR     66  61  82 CALM      30.02R                  
GRAND RAPIDS   CLEAR     66  59  78 SE5       30.06R                  
CRANE LAKE     CLEAR     64  50  59 SE3       30.04R                  
ORR              N/A     64  54  68 S5        30.01R                  
COOK           CLEAR     63  48  59 SE5       30.03R                  
WALKER         CLEAR     69  63  79 S3        30.02R                  
$$

SKY/WX - Weather  TMP - Temperature  DP - Dew Point  RH - Humidity
WIND - Wind Direction/Speed PRES - Barometric Pressure VSB - Visibility
WCI - Wind Chill Index E13G22 Wind - East Wind 13 mph/Gusts of 22 mph

Trending Headlines

Lawrence Radar Loop



Lawrence Quick Facts


National Two Day Weather Forecast


E-mail the Lawrence Weather Forecast

Voice your opinion or tell us about page issues...